Powrót do katalogu

SL-14 DEB

AktywnyPO
NORAD 47078·DEBRIS·🇷🇺 Russia

Wystrzelony Aug 15, 1991 z Plesetsk Cosmodrome

Loading…

Następne Przeloty (najbliższe 24 godziny)

TLE

ŚwieżeSource: Space-Track

Epoka: Sep 14, 2026, 08:41 UTC

1 47078U 91056DC  26257.36236285  .00000518  00000-0  10734-2 0  9995
2 47078  82.5550  43.8748 0041726  63.7059 296.8348 13.30243793284398

Śledź SL-14 DEB w czasie rzeczywistym z AllMySat

Download on the App Store